Time,TemperatureF,DewpointF,PressureIn,WindDirection,WindDirectionDegrees,WindSpeedMPH,WindSpeedGustMPH,Humidity,HourlyPrecipIn,Conditions,Clouds,dailyrainin,SoftwareType,DateUTC
2013-06-30 00:00:00,61.5,60.4,29.74,ENE,68,2.0,0.0,96,0.00,RA,,0.00,WeatherDisplay:10.37,2013-06-30 04:00:00,
2013-06-30 00:01:00,61.5,60.4,29.74,ENE,68,1.2,0.0,96,0.00,RA,,0.00,WeatherDisplay:10.37,2013-06-30 04:01:00,
2013-06-30 00:06:00,61.5,60.4,29.74,ENE,68,2.3,2.3,96,0.00,RA,,0.00,WeatherDisplay:10.37,2013-06-30 04:06:00,
2013-06-30 00:11:00,61.3,60.2,29.74,ENE,68,2.2,2.2,96,0.00,CLR,,0.00,WeatherDisplay:10.37,2013-06-30 04:11:00,
2013-06-30 00:16:00,61.3,60.5,29.74,ENE,68,2.6,2.6,97,0.00,CLR,,0.00,WeatherDisplay:10.37,2013-06-30 04:16:00,
2013-06-30 00:21:00,61.3,60.5,29.74,ENE,68,2.4,2.4,97,0.00,CLR,,0.00,WeatherDisplay:10.37,2013-06-30 04:21:00,
2013-06-30 00:26:00,61.3,60.5,29.74,NE,45,2.3,2.3,97,0.00,CLR,,0.00,WeatherDisplay:10.37,2013-06-30 04:26:00,
2013-06-30 00:31:00,61.3,60.5,29.77,ESE,112,2.3,2.3,97,0.00,CLR,,0.00,WeatherDisplay:10.37,2013-06-30 04:31:00,
2013-06-30 00:36:00,61.3,60.5,29.77,ENE,68,1.2,0.0,97,0.00,CLR,,0.00,WeatherDisplay:10.37,2013-06-30 04:36:00,
2013-06-30 00:41:00,61.3,60.5,29.77,ESE,112,2.4,2.6,97,0.00,CLR,,0.00,WeatherDisplay:10.37,2013-06-30 04:41:00,
2013-06-30 00:46:00,61.3,60.5,29.74,NNE,22,3.1,3.1,97,0.00,CLR,,0.00,WeatherDisplay:10.37,2013-06-30 04:46:00,
2013-06-30 00:51:00,61.3,60.5,29.74,ENE,68,1.6,1.6,97,0.00,CLR,,0.00,WeatherDisplay:10.37,2013-06-30 04:51:00,
2013-06-30 00:56:00,61.5,60.7,29.74,NNE,22,1.2,1.2,97,0.00,CLR,,0.00,WeatherDisplay:10.37,2013-06-30 04:56:00,
2013-06-30 01:01:00,61.7,60.8,29.74,ENE,68,2.9,2.9,97,0.00,CLR,,0.00,WeatherDisplay:10.37,2013-06-30 05:01:00,
2013-06-30 01:06:00,61.9,61.0,29.74,East,90,2.3,2.3,97,0.00,CLR,,0.00,WeatherDisplay:10.37,2013-06-30 05:06:00,
2013-06-30 01:11:00,61.9,61.0,29.74,ENE,68,2.3,2.3,97,0.00,CLR,,0.00,WeatherDisplay:10.37,2013-06-30 05:11:00,
2013-06-30 01:16:00,61.7,60.8,29.74,ENE,68,1.2,1.2,97,0.00,CLR,,0.00,WeatherDisplay:10.37,2013-06-30 05:16:00,
2013-06-30 01:21:00,61.7,60.8,29.74,ESE,112,1.2,1.2,97,0.00,CLR,,0.00,WeatherDisplay:10.37,2013-06-30 05:21:00,
2013-06-30 01:26:00,61.5,60.7,29.74,ENE,68,1.4,1.4,97,0.00,CLR,,0.00,WeatherDisplay:10.37,2013-06-30 05:26:00,
2013-06-30 01:31:00,61.5,60.7,29.74,ENE,68,0.0,0.0,97,0.00,CLR,,0.00,WeatherDisplay:10.37,2013-06-30 05:31:00,
2013-06-30 01:36:00,61.3,60.5,29.74,ENE,68,1.2,0.0,97,0.00,CLR,,0.00,WeatherDisplay:10.37,2013-06-30 05:36:00,
2013-06-30 01:41:00,61.5,60.7,29.74,ENE,68,1.2,0.0,97,0.00,CLR,,0.00,WeatherDisplay:10.37,2013-06-30 05:41:00,
2013-06-30 01:46:00,61.5,60.7,29.77,ENE,68,2.6,2.6,97,0.00,CLR,,0.00,WeatherDisplay:10.37,2013-06-30 05:46:00,
2013-06-30 01:51:00,61.5,60.7,29.77,SE,135,2.3,2.3,97,0.00,CLR,,0.00,WeatherDisplay:10.37,2013-06-30 05:51:00,
2013-06-30 01:56:00,61.5,60.7,29.77,ENE,68,2.3,2.3,97,0.00,CLR,,0.00,WeatherDisplay:10.37,2013-06-30 05:56:00,
2013-06-30 02:01:00,61.7,60.8,29.77,ESE,112,3.3,3.3,97,0.00,CLR,,0.00,WeatherDisplay:10.37,2013-06-30 06:01:00,
2013-06-30 02:06:00,61.9,61.0,29.77,ENE,68,2.9,0.0,97,0.00,CLR,,0.00,WeatherDisplay:10.37,2013-06-30 06:06:00,
2013-06-30 02:11:00,61.9,61.0,29.77,ENE,68,3.5,3.5,97,0.00,CLR,,0.00,WeatherDisplay:10.37,2013-06-30 06:11:00,
2013-06-30 02:16:00,61.9,61.0,29.77,ENE,68,4.6,4.6,97,0.00,CLR,,0.00,WeatherDisplay:10.37,2013-06-30 06:16:00,
2013-06-30 02:21:00,61.7,60.8,29.77,ENE,68,2.4,2.4,97,0.00,CLR,,0.00,WeatherDisplay:10.37,2013-06-30 06:21:00,
2013-06-30 02:26:00,61.7,60.8,29.77,ENE,68,2.3,2.3,97,0.00,CLR,,0.00,WeatherDisplay:10.37,2013-06-30 06:26:00,
2013-06-30 02:31:00,61.5,60.7,29.77,ENE,68,2.3,2.3,97,0.00,CLR,,0.00,WeatherDisplay:10.37,2013-06-30 06:31:00,
2013-06-30 02:36:00,61.5,60.7,29.77,ENE,68,1.4,1.4,97,0.00,CLR,,0.00,WeatherDisplay:10.37,2013-06-30 06:36:00,
2013-06-30 02:41:00,61.3,60.5,29.77,ENE,68,1.6,1.6,97,0.00,CLR,,0.00,WeatherDisplay:10.37,2013-06-30 06:41:00,
2013-06-30 02:46:00,61.3,60.8,29.77,ENE,68,2.0,2.0,98,0.00,CLR,,0.00,WeatherDisplay:10.37,2013-06-30 06:46:00,
2013-06-30 02:51:00,61.5,61.0,29.77,ENE,68,2.6,2.6,98,0.00,CLR,,0.00,WeatherDisplay:10.37,2013-06-30 06:51:00,
2013-06-30 02:56:00,61.7,61.1,29.77,NE,45,3.5,3.5,98,0.00,CLR,,0.00,WeatherDisplay:10.37,2013-06-30 06:56:00,
2013-06-30 03:01:00,61.7,61.1,29.77,ENE,68,2.3,2.3,98,0.00,CLR,,0.00,WeatherDisplay:10.37,2013-06-30 07:01:00,
2013-06-30 03:06:00,61.9,61.3,29.77,East,90,3.5,3.5,98,0.00,CLR,,0.00,WeatherDisplay:10.37,2013-06-30 07:06:00,
2013-06-30 03:11:00,62.1,61.5,29.77,East,90,3.1,3.1,98,0.00,CLR,,0.00,WeatherDisplay:10.37,2013-06-30 07:11:00,
2013-06-30 03:16:00,62.2,61.7,29.77,ENE,68,2.6,2.6,98,0.00,CLR,,0.00,WeatherDisplay:10.37,2013-06-30 07:16:00,
2013-06-30 03:21:00,62.2,61.7,29.77,ESE,112,2.3,2.3,98,0.00,CLR,,0.00,WeatherDisplay:10.37,2013-06-30 07:21:00,
2013-06-30 03:26:00,62.2,61.7,29.77,NNE,22,2.3,2.3,98,0.00,CLR,,0.00,WeatherDisplay:10.37,2013-06-30 07:26:00,
2013-06-30 03:31:00,62.4,61.8,29.77,ENE,68,2.3,2.3,98,0.00,CLR,,0.00,WeatherDisplay:10.37,2013-06-30 07:31:00,
2013-06-30 03:36:00,62.4,61.8,29.77,ESE,112,2.3,2.3,98,0.00,CLR,,0.00,WeatherDisplay:10.37,2013-06-30 07:36:00,
2013-06-30 03:41:00,62.4,61.8,29.77,ENE,68,2.3,2.3,98,0.00,CLR,,0.00,WeatherDisplay:10.37,2013-06-30 07:41:00,
2013-06-30 03:46:00,62.6,62.0,29.77,ENE,68,3.5,3.5,98,0.00,CLR,,0.00,WeatherDisplay:10.37,2013-06-30 07:46:00,
2013-06-30 03:51:00,62.6,62.0,29.77,ENE,68,2.3,2.3,98,0.00,CLR,,0.00,WeatherDisplay:10.37,2013-06-30 07:51:00,
2013-06-30 03:57:00,62.6,62.0,29.77,ENE,68,1.2,1.2,98,0.00,CLR,,0.00,WeatherDisplay:10.37,2013-06-30 07:57:00,
2013-06-30 04:02:00,62.6,61.7,29.77,NE,45,2.4,2.4,97,0.00,CLR,,0.00,WeatherDisplay:10.37,2013-06-30 08:02:00,
2013-06-30 04:07:00,62.6,62.0,29.77,ENE,68,2.3,2.3,98,0.00,CLR,,0.00,WeatherDisplay:10.37,2013-06-30 08:07:00,
2013-06-30 04:12:00,62.6,62.0,29.77,ENE,68,2.3,2.3,98,0.00,CLR,,0.00,WeatherDisplay:10.37,2013-06-30 08:12:00,
2013-06-30 04:17:00,62.6,62.0,29.74,ESE,112,2.3,2.3,98,0.00,CLR,,0.00,WeatherDisplay:10.37,2013-06-30 08:17:00,
2013-06-30 04:22:00,62.6,62.0,29.74,ESE,112,0.0,0.0,98,0.00,CLR,,0.00,WeatherDisplay:10.37,2013-06-30 08:22:00,
2013-06-30 04:27:00,62.6,62.0,29.74,ENE,68,3.5,3.5,98,0.04,RA,,0.04,WeatherDisplay:10.37,2013-06-30 08:27:00,
2013-06-30 04:32:00,62.6,62.0,29.74,East,90,2.0,2.0,98,0.04,RA,,0.04,WeatherDisplay:10.37,2013-06-30 08:32:00,
2013-06-30 04:37:00,62.6,62.0,29.74,ENE,68,3.6,3.6,98,0.04,,,0.04,WeatherDisplay:10.37,2013-06-30 08:37:00,
2013-06-30 04:42:00,62.6,62.0,29.74,East,90,3.5,3.5,98,0.04,CLR,,0.04,WeatherDisplay:10.37,2013-06-30 08:42:00,
2013-06-30 04:47:00,62.6,62.0,29.74,ENE,68,3.5,3.5,98,0.04,CLR,,0.04,WeatherDisplay:10.37,2013-06-30 08:47:00,
2013-06-30 04:52:00,62.6,62.0,29.74,NE,45,4.0,4.0,98,0.04,CLR,,0.04,WeatherDisplay:10.37,2013-06-30 08:52:00,
2013-06-30 04:57:00,62.6,62.0,29.74,ENE,68,3.5,3.5,98,0.04,CLR,,0.04,WeatherDisplay:10.37,2013-06-30 08:57:00,
2013-06-30 05:02:00,62.6,62.0,29.74,ENE,68,2.3,2.3,98,0.04,CLR,,0.04,WeatherDisplay:10.37,2013-06-30 09:02:00,
2013-06-30 05:07:00,62.6,62.0,29.74,SE,135,2.3,2.3,98,0.04,CLR,,0.04,WeatherDisplay:10.37,2013-06-30 09:07:00,
2013-06-30 05:12:00,62.6,62.0,29.74,SE,135,0.0,0.0,98,0.04,CLR,,0.04,WeatherDisplay:10.37,2013-06-30 09:12:00,
2013-06-30 05:17:00,62.4,61.8,29.77,ESE,112,0.0,0.0,98,0.04,CLR,,0.04,WeatherDisplay:10.37,2013-06-30 09:17:00,
2013-06-30 05:22:00,62.4,61.8,29.77,ESE,112,0.0,0.0,98,0.04,CLR,,0.04,WeatherDisplay:10.37,2013-06-30 09:22:00,
2013-06-30 05:27:00,62.4,61.8,29.77,ENE,68,1.6,1.6,98,0.00,CLR,,0.04,WeatherDisplay:10.37,2013-06-30 09:27:00,
2013-06-30 05:32:00,62.4,61.8,29.77,ENE,68,0.0,0.0,98,0.00,CLR,,0.04,WeatherDisplay:10.37,2013-06-30 09:32:00,
2013-06-30 05:37:00,62.4,61.8,29.77,ENE,68,3.5,3.5,98,0.00,CLR,,0.04,WeatherDisplay:10.37,2013-06-30 09:37:00,
2013-06-30 05:42:00,62.4,61.8,29.77,East,90,3.5,3.5,98,0.00,CLR,,0.04,WeatherDisplay:10.37,2013-06-30 09:42:00,
2013-06-30 05:47:00,62.4,61.8,29.77,ENE,68,2.3,2.3,98,0.00,CLR,,0.04,WeatherDisplay:10.37,2013-06-30 09:47:00,
2013-06-30 05:52:00,62.6,62.0,29.77,NNE,22,4.6,4.6,98,0.00,CLR,,0.04,WeatherDisplay:10.37,2013-06-30 09:52:00,
2013-06-30 05:57:00,62.6,62.0,29.77,ESE,112,2.3,2.3,98,0.00,CLR,,0.04,WeatherDisplay:10.37,2013-06-30 09:57:00,
2013-06-30 06:02:00,62.6,62.0,29.77,ENE,68,1.2,0.0,98,0.00,CLR,,0.04,WeatherDisplay:10.37,2013-06-30 10:02:00,
2013-06-30 06:07:00,62.6,62.0,29.77,ENE,68,2.3,2.3,98,0.00,CLR,,0.04,WeatherDisplay:10.37,2013-06-30 10:07:00,
2013-06-30 06:12:00,62.6,62.0,29.77,East,90,1.2,1.2,98,0.00,CLR,,0.04,WeatherDisplay:10.37,2013-06-30 10:12:00,
2013-06-30 06:17:00,62.6,62.0,29.77,ENE,68,2.3,2.3,98,0.00,CLR,,0.04,WeatherDisplay:10.37,2013-06-30 10:17:00,
2013-06-30 06:22:00,62.6,62.0,29.77,ENE,68,0.0,0.0,98,0.00,CLR,,0.04,WeatherDisplay:10.37,2013-06-30 10:22:00,
2013-06-30 06:27:00,62.6,62.0,29.77,ENE,68,2.3,0.0,98,0.00,CLR,,0.04,WeatherDisplay:10.37,2013-06-30 10:27:00,
2013-06-30 06:32:00,62.6,62.0,29.77,ENE,68,1.2,0.0,98,0.00,CLR,,0.04,WeatherDisplay:10.37,2013-06-30 10:32:00,
2013-06-30 06:37:00,62.6,62.0,29.77,ENE,68,0.0,0.0,98,0.00,CLR,,0.04,WeatherDisplay:10.37,2013-06-30 10:37:00,
2013-06-30 06:42:00,62.6,62.0,29.77,ENE,68,0.0,0.0,98,0.00,CLR,,0.04,WeatherDisplay:10.37,2013-06-30 10:42:00,
2013-06-30 06:47:00,62.6,62.0,29.80,ENE,68,0.0,0.0,98,0.00,CLR,,0.04,WeatherDisplay:10.37,2013-06-30 10:47:00,
2013-06-30 06:52:00,62.8,62.2,29.80,ENE,68,1.2,0.0,98,0.00,CLR,,0.04,WeatherDisplay:10.37,2013-06-30 10:52:00,
2013-06-30 06:57:00,62.8,62.2,29.80,ENE,68,1.6,1.6,98,0.00,CLR,,0.04,WeatherDisplay:10.37,2013-06-30 10:57:00,
2013-06-30 07:02:00,63.0,62.4,29.77,ENE,68,1.2,0.0,98,0.00,CLR,,0.04,WeatherDisplay:10.37,2013-06-30 11:02:00,
2013-06-30 07:07:00,63.0,62.4,29.77,ENE,68,0.0,0.0,98,0.00,CLR,,0.04,WeatherDisplay:10.37,2013-06-30 11:07:00,
2013-06-30 07:12:00,63.0,62.4,29.77,ENE,68,0.9,0.0,98,0.00,CLR,,0.04,WeatherDisplay:10.37,2013-06-30 11:12:00,
2013-06-30 07:17:00,63.1,62.6,29.77,ENE,68,1.2,0.0,98,0.00,CLR,,0.04,WeatherDisplay:10.37,2013-06-30 11:17:00,
2013-06-30 07:22:00,63.1,62.6,29.77,ENE,68,1.4,1.4,98,0.00,CLR,,0.04,WeatherDisplay:10.37,2013-06-30 11:22:00,
2013-06-30 07:27:00,63.3,62.7,29.77,ENE,68,1.4,0.0,98,0.00,CLR,,0.04,WeatherDisplay:10.37,2013-06-30 11:27:00,
2013-06-30 07:32:00,63.5,62.9,29.80,ENE,68,1.2,0.0,98,0.00,CLR,,0.04,WeatherDisplay:10.37,2013-06-30 11:32:00,
2013-06-30 07:37:00,63.5,62.9,29.80,East,90,2.3,0.0,98,0.00,CLR,,0.04,WeatherDisplay:10.37,2013-06-30 11:37:00,
2013-06-30 07:42:00,63.7,63.1,29.80,ENE,68,1.6,0.0,98,0.00,CLR,,0.04,WeatherDisplay:10.37,2013-06-30 11:42:00,
2013-06-30 07:47:00,63.9,63.3,29.80,East,90,0.0,0.0,98,0.00,CLR,,0.04,WeatherDisplay:10.37,2013-06-30 11:47:00,
2013-06-30 07:52:00,63.9,63.3,29.80,ENE,68,1.2,0.0,98,0.00,CLR,,0.04,WeatherDisplay:10.37,2013-06-30 11:52:00,
2013-06-30 07:57:00,64.0,63.2,29.80,ENE,68,2.3,2.3,97,0.00,CLR,,0.04,WeatherDisplay:10.37,2013-06-30 11:57:00,
2013-06-30 08:02:00,64.0,63.2,29.80,ENE,68,3.5,3.5,97,0.00,CLR,,0.04,WeatherDisplay:10.37,2013-06-30 12:02:00,
2013-06-30 08:07:00,64.2,63.6,29.80,ENE,68,2.4,2.4,98,0.00,CLR,,0.04,WeatherDisplay:10.37,2013-06-30 12:07:00,
2013-06-30 08:12:00,64.4,63.5,29.80,ENE,68,2.3,2.3,97,0.00,CLR,,0.04,WeatherDisplay:10.37,2013-06-30 12:12:00,
2013-06-30 08:17:00,64.4,63.5,29.80,NE,45,2.3,2.3,97,0.00,CLR,,0.04,WeatherDisplay:10.37,2013-06-30 12:17:00,
2013-06-30 08:22:00,64.8,63.9,29.80,ENE,68,2.6,2.6,97,0.00,CLR,,0.04,WeatherDisplay:10.37,2013-06-30 12:22:00,
2013-06-30 08:27:00,65.1,64.2,29.80,SSE,158,2.3,2.3,97,0.00,CLR,,0.04,WeatherDisplay:10.37,2013-06-30 12:27:00,
2013-06-30 08:32:00,65.7,64.8,29.80,ENE,68,3.5,3.5,97,0.00,CLR,,0.04,WeatherDisplay:10.37,2013-06-30 12:32:00,
2013-06-30 08:37:00,65.8,65.0,29.80,ENE,68,2.3,2.4,97,0.00,CLR,,0.04,WeatherDisplay:10.37,2013-06-30 12:37:00,
2013-06-30 08:42:00,66.0,65.1,29.80,ESE,112,2.3,2.3,97,0.00,CLR,,0.04,WeatherDisplay:10.37,2013-06-30 12:42:00,
2013-06-30 08:47:00,66.2,65.0,29.80,ENE,68,3.5,3.5,96,0.00,CLR,,0.04,WeatherDisplay:10.37,2013-06-30 12:47:00,
2013-06-30 08:52:00,67.3,66.1,29.80,ESE,112,3.6,3.6,96,0.00,CLR,,0.04,WeatherDisplay:10.37,2013-06-30 12:52:00,
2013-06-30 08:57:00,68.0,65.9,29.80,East,90,5.8,5.8,93,0.00,CLR,,0.04,WeatherDisplay:10.37,2013-06-30 12:57:00,
2013-06-30 09:03:00,68.5,66.1,29.83,ENE,68,3.8,3.8,92,0.00,CLR,,0.04,WeatherDisplay:10.37,2013-06-30 13:03:00,
2013-06-30 09:08:00,68.4,65.3,29.83,NNE,22,5.8,5.8,90,0.00,CLR,,0.04,WeatherDisplay:10.37,2013-06-30 13:08:00,
2013-06-30 09:13:00,69.3,66.5,29.83,NNE,22,3.5,3.5,91,0.00,CLR,,0.04,WeatherDisplay:10.37,2013-06-30 13:13:00,
2013-06-30 09:18:00,69.8,66.4,29.83,ESE,112,3.5,3.5,89,0.00,CLR,,0.04,WeatherDisplay:10.37,2013-06-30 13:18:00,
2013-06-30 09:23:00,70.3,66.6,29.83,ENE,68,3.5,3.5,88,0.00,CLR,,0.04,WeatherDisplay:10.37,2013-06-30 13:23:00,
2013-06-30 09:28:00,71.1,67.0,29.83,ESE,112,3.5,3.5,87,0.00,CLR,,0.04,WeatherDisplay:10.37,2013-06-30 13:28:00,
2013-06-30 09:33:00,71.6,66.8,29.83,East,90,2.3,2.3,85,0.00,CLR,,0.04,WeatherDisplay:10.37,2013-06-30 13:33:00,
2013-06-30 09:38:00,71.6,65.8,29.83,ESE,112,4.6,4.6,82,0.00,CLR,,0.04,WeatherDisplay:10.37,2013-06-30 13:38:00,
2013-06-30 09:43:00,71.4,66.0,29.83,ENE,68,4.6,4.6,83,0.00,CLR,,0.04,WeatherDisplay:10.37,2013-06-30 13:43:00,
2013-06-30 09:48:00,72.1,66.7,29.83,ENE,68,2.3,2.3,83,0.00,CLR,,0.04,WeatherDisplay:10.37,2013-06-30 13:48:00,
2013-06-30 09:53:00,74.5,68.6,29.83,ESE,112,3.5,0.0,82,0.00,CLR,,0.04,WeatherDisplay:10.37,2013-06-30 13:53:00,
2013-06-30 09:58:00,73.9,67.0,29.83,ENE,68,3.5,3.5,79,0.00,CLR,,0.04,WeatherDisplay:10.37,2013-06-30 13:58:00,
2013-06-30 10:03:00,74.3,67.4,29.83,NNE,22,1.6,0.0,79,0.00,CLR,,0.04,WeatherDisplay:10.37,2013-06-30 14:03:00,
2013-06-30 10:08:00,76.3,68.9,29.83,ESE,112,1.2,0.0,78,0.00,CLR,,0.04,WeatherDisplay:10.37,2013-06-30 14:08:00,
2013-06-30 10:13:00,77.7,68.8,29.83,WSW,248,3.5,3.5,74,0.00,CLR,,0.04,WeatherDisplay:10.37,2013-06-30 14:13:00,
2013-06-30 10:18:00,76.8,67.9,29.83,NNW,338,2.4,2.4,74,0.00,CLR,,0.04,WeatherDisplay:10.37,2013-06-30 14:18:00,
2013-06-30 10:23:00,76.3,67.4,29.83,NNE,22,2.6,2.6,74,0.00,CLR,,0.04,WeatherDisplay:10.37,2013-06-30 14:23:00,
2013-06-30 10:28:00,76.8,67.1,29.83,ESE,112,3.5,3.5,72,0.00,CLR,,0.04,WeatherDisplay:10.37,2013-06-30 14:28:00,
2013-06-30 10:33:00,76.8,67.1,29.83,ENE,68,1.4,1.4,72,0.00,CLR,,0.04,WeatherDisplay:10.37,2013-06-30 14:33:00,
2013-06-30 10:38:00,79.0,67.5,29.83,ESE,112,5.8,5.8,68,0.00,CLR,,0.04,WeatherDisplay:10.37,2013-06-30 14:38:00,
2013-06-30 10:43:00,77.9,66.5,29.83,NE,45,4.6,4.6,68,0.00,CLR,,0.04,WeatherDisplay:10.37,2013-06-30 14:43:00,
2013-06-30 10:48:00,78.3,67.3,29.83,ESE,112,3.5,3.5,69,0.00,CLR,,0.04,WeatherDisplay:10.37,2013-06-30 14:48:00,
2013-06-30 10:53:00,80.1,68.5,29.83,ENE,68,3.5,3.5,68,0.00,CLR,,0.04,WeatherDisplay:10.37,2013-06-30 14:53:00,
2013-06-30 10:58:00,79.2,67.7,29.83,WSW,248,2.3,2.3,68,0.00,CLR,,0.04,WeatherDisplay:10.37,2013-06-30 14:58:00,
2013-06-30 11:03:00,78.6,66.7,29.83,ENE,68,2.3,0.0,67,0.00,CLR,,0.04,WeatherDisplay:10.37,2013-06-30 15:03:00,
2013-06-30 11:08:00,79.9,67.1,29.83,NNE,22,3.5,3.5,65,0.00,CLR,,0.04,WeatherDisplay:10.37,2013-06-30 15:08:00,
2013-06-30 11:13:00,80.6,66.8,29.83,ENE,68,6.9,6.9,63,0.00,CLR,,0.04,WeatherDisplay:10.37,2013-06-30 15:13:00,
2013-06-30 11:18:00,80.6,67.7,29.83,ENE,68,3.8,3.8,65,0.00,CLR,,0.04,WeatherDisplay:10.37,2013-06-30 15:18:00,
2013-06-30 11:23:00,79.0,65.3,29.83,East,90,4.6,4.6,63,0.00,CLR,,0.04,WeatherDisplay:10.37,2013-06-30 15:23:00,
2013-06-30 11:28:00,78.3,66.4,29.83,NNE,22,5.8,5.8,67,0.00,CLR,,0.04,WeatherDisplay:10.37,2013-06-30 15:28:00,
2013-06-30 11:33:00,81.1,68.3,29.83,ENE,68,2.3,2.3,65,0.00,CLR,,0.04,WeatherDisplay:10.37,2013-06-30 15:33:00,
2013-06-30 11:38:00,83.3,69.4,29.83,ENE,68,3.5,3.5,63,0.00,CLR,,0.04,WeatherDisplay:10.37,2013-06-30 15:38:00,
2013-06-30 11:43:00,82.6,67.8,29.83,SE,135,5.8,5.8,61,0.00,CLR,,0.04,WeatherDisplay:10.37,2013-06-30 15:43:00,
2013-06-30 11:48:00,83.8,69.0,29.83,NNE,22,3.5,3.5,61,0.00,CLR,,0.04,WeatherDisplay:10.37,2013-06-30 15:48:00,
2013-06-30 11:53:00,86.4,69.3,29.83,NNW,338,3.1,3.1,57,0.00,CLR,,0.04,WeatherDisplay:10.37,2013-06-30 15:53:00,
2013-06-30 11:58:00,86.0,68.0,29.83,NNE,22,2.3,2.3,55,0.00,CLR,,0.04,WeatherDisplay:10.37,2013-06-30 15:58:00,
2013-06-30 12:03:00,84.7,65.7,29.83,NNE,22,3.5,3.5,53,0.00,CLR,,0.04,WeatherDisplay:10.37,2013-06-30 16:03:00,
2013-06-30 12:08:00,85.1,67.1,29.83,NNW,338,2.3,2.3,55,0.00,CLR,,0.04,WeatherDisplay:10.37,2013-06-30 16:08:00,
2013-06-30 12:13:00,86.2,66.5,29.83,ESE,112,4.3,4.3,52,0.00,CLR,,0.04,WeatherDisplay:10.37,2013-06-30 16:13:00,
2013-06-30 12:18:00,86.5,67.4,29.83,WNW,292,4.6,4.6,53,0.00,CLR,,0.04,WeatherDisplay:10.37,2013-06-30 16:18:00,
2013-06-30 12:23:00,86.7,65.9,29.83,NNW,338,6.9,6.9,50,0.00,CLR,,0.04,WeatherDisplay:10.37,2013-06-30 16:23:00,
2013-06-30 12:28:00,87.1,67.9,29.83,NNE,22,3.5,3.5,53,0.00,CLR,,0.04,WeatherDisplay:10.37,2013-06-30 16:28:00,
2013-06-30 12:33:00,86.7,67.0,29.83,NNW,338,2.3,2.3,52,0.00,CLR,,0.04,WeatherDisplay:10.37,2013-06-30 16:33:00,
2013-06-30 12:38:00,87.1,66.8,29.83,ENE,68,2.4,2.4,51,0.00,CLR,,0.04,WeatherDisplay:10.37,2013-06-30 16:38:00,
2013-06-30 12:43:00,87.1,66.2,29.83,NNE,22,5.8,5.8,50,0.00,CLR,,0.04,WeatherDisplay:10.37,2013-06-30 16:43:00,
2013-06-30 12:48:00,88.3,67.3,29.85,ENE,68,3.5,3.5,50,0.00,CLR,,0.04,WeatherDisplay:10.37,2013-06-30 16:48:00,
2013-06-30 12:53:00,88.9,67.2,29.85,SSW,202,4.6,4.6,49,0.00,CLR,,0.04,WeatherDisplay:10.37,2013-06-30 16:53:00,
2013-06-30 12:58:00,87.1,66.8,29.85,South,180,3.5,3.5,51,0.00,CLR,,0.04,WeatherDisplay:10.37,2013-06-30 16:58:00,
2013-06-30 13:03:00,83.7,64.2,29.85,ENE,68,4.6,4.6,52,0.00,CLR,,0.04,WeatherDisplay:10.37,2013-06-30 17:03:00,
2013-06-30 13:08:00,85.3,66.2,29.85,ENE,68,5.9,5.9,53,0.00,CLR,,0.04,WeatherDisplay:10.37,2013-06-30 17:08:00,
2013-06-30 13:13:00,86.5,66.8,29.85,WNW,292,4.6,4.6,52,0.00,CLR,,0.04,WeatherDisplay:10.37,2013-06-30 17:13:00,
2013-06-30 13:18:00,85.6,66.0,29.85,ESE,112,3.3,3.3,52,0.00,CLR,,0.04,WeatherDisplay:10.37,2013-06-30 17:18:00,
2013-06-30 13:23:00,86.2,65.9,29.85,NNW,338,2.3,2.3,51,0.00,CLR,,0.04,WeatherDisplay:10.37,2013-06-30 17:23:00,
2013-06-30 13:28:00,88.2,67.8,29.85,ENE,68,3.5,3.5,51,0.00,CLR,,0.04,WeatherDisplay:10.37,2013-06-30 17:28:00,
2013-06-30 13:33:00,88.0,66.4,29.83,NNE,22,8.1,8.1,49,0.00,CLR,,0.04,WeatherDisplay:10.37,2013-06-30 17:33:00,
2013-06-30 13:38:00,87.1,66.2,29.83,ENE,68,5.8,5.8,50,0.00,CLR,,0.04,WeatherDisplay:10.37,2013-06-30 17:38:00,
2013-06-30 13:43:00,86.7,65.3,29.83,NNW,338,5.8,5.8,49,0.00,CLR,,0.04,WeatherDisplay:10.37,2013-06-30 17:43:00,
2013-06-30 13:48:00,85.5,64.7,29.85,ESE,112,6.9,6.9,50,0.00,CLR,,0.04,WeatherDisplay:10.37,2013-06-30 17:48:00,
2013-06-30 13:53:00,87.3,66.4,29.85,ESE,112,2.3,2.3,50,0.00,CLR,,0.04,WeatherDisplay:10.37,2013-06-30 17:53:00,
2013-06-30 13:58:00,87.8,65.7,29.85,ENE,68,2.3,2.3,48,0.00,CLR,,0.04,WeatherDisplay:10.37,2013-06-30 17:58:00,
2013-06-30 14:03:00,89.2,66.4,29.83,NNW,338,4.0,4.0,47,0.00,CLR,,0.04,WeatherDisplay:10.37,2013-06-30 18:03:00,
2013-06-30 14:08:00,89.2,66.4,29.83,SSW,202,3.5,3.5,47,0.00,CLR,,0.04,WeatherDisplay:10.37,2013-06-30 18:08:00,
2013-06-30 14:13:00,90.5,66.9,29.83,ENE,68,3.5,3.5,46,0.00,CLR,,0.04,WeatherDisplay:10.37,2013-06-30 18:13:00,
2013-06-30 14:18:00,92.1,67.7,29.83,NE,45,3.5,3.5,45,0.00,CLR,,0.04,WeatherDisplay:10.37,2013-06-30 18:18:00,
2013-06-30 14:23:00,88.5,64.5,29.83,NNW,338,2.3,2.3,45,0.00,CLR,,0.04,WeatherDisplay:10.37,2013-06-30 18:23:00,
2013-06-30 14:28:00,89.6,64.8,29.83,NNE,22,5.8,5.8,44,0.00,CLR,,0.04,WeatherDisplay:10.37,2013-06-30 18:28:00,
2013-06-30 14:33:00,89.6,65.4,29.83,ENE,68,2.3,2.3,45,0.00,CLR,,0.04,WeatherDisplay:10.37,2013-06-30 18:33:00,
2013-06-30 14:38:00,91.6,65.9,29.83,ESE,112,2.3,2.3,43,0.00,CLR,,0.04,WeatherDisplay:10.37,2013-06-30 18:38:00,
2013-06-30 14:43:00,91.2,65.6,29.83,NE,45,4.6,4.6,43,0.00,CLR,,0.04,WeatherDisplay:10.37,2013-06-30 18:43:00,
2013-06-30 14:48:00,89.1,64.3,29.83,NNW,338,4.0,4.0,44,0.00,CLR,,0.04,WeatherDisplay:10.37,2013-06-30 18:48:00,
2013-06-30 14:53:00,86.5,63.3,29.83,ENE,68,1.4,1.4,46,0.00,CLR,,0.04,WeatherDisplay:10.37,2013-06-30 18:53:00,
2013-06-30 14:58:00,85.3,64.0,29.83,WNW,292,2.3,2.3,49,0.00,CLR,,0.04,WeatherDisplay:10.37,2013-06-30 18:58:00,
2013-06-30 15:03:00,84.2,63.0,29.83,NNW,338,3.5,3.5,49,0.00,CLR,,0.04,WeatherDisplay:10.37,2013-06-30 19:03:00,
2013-06-30 15:08:00,83.7,63.0,29.83,WNW,292,3.5,3.5,50,0.00,CLR,,0.04,WeatherDisplay:10.37,2013-06-30 19:08:00,
2013-06-30 15:13:00,82.2,62.8,29.83,NE,45,2.3,2.3,52,0.00,CLR,,0.04,WeatherDisplay:10.37,2013-06-30 19:13:00,
2013-06-30 15:18:00,81.7,62.9,29.83,ENE,68,3.1,3.1,53,0.00,CLR,,0.04,WeatherDisplay:10.37,2013-06-30 19:18:00,
2013-06-30 15:23:00,81.0,62.7,29.83,WNW,292,3.5,0.0,54,0.00,CLR,,0.04,WeatherDisplay:10.37,2013-06-30 19:23:00,
2013-06-30 15:28:00,80.4,62.8,29.83,ENE,68,2.2,2.2,55,0.00,CLR,,0.04,WeatherDisplay:10.37,2013-06-30 19:28:00,
2013-06-30 15:33:00,78.6,64.5,29.83,ESE,112,7.4,7.4,62,0.00,CLR,,0.04,WeatherDisplay:10.37,2013-06-30 19:33:00,
2013-06-30 15:38:00,74.5,66.0,29.83,ESE,112,10.4,10.4,75,0.00,CLR,,0.04,WeatherDisplay:10.37,2013-06-30 19:38:00,
2013-06-30 15:43:00,68.7,63.3,29.83,ENE,68,17.0,17.0,83,0.04,RA,,0.08,WeatherDisplay:10.37,2013-06-30 19:43:00,
2013-06-30 15:48:00,65.8,60.5,29.85,WNW,292,4.6,4.6,83,0.29,RA,,0.33,WeatherDisplay:10.37,2013-06-30 19:48:00,
2013-06-30 15:53:00,65.1,61.2,29.85,WSW,248,4.6,4.6,87,0.37,RA,,0.41,WeatherDisplay:10.37,2013-06-30 19:53:00,
2013-06-30 15:58:00,64.4,61.7,29.85,WNW,292,5.8,5.8,91,0.46,RA,,0.54,WeatherDisplay:10.37,2013-06-30 19:58:00,
2013-06-30 16:03:00,64.4,62.3,29.85,WNW,292,5.8,5.8,93,0.58,RA,,0.66,WeatherDisplay:10.37,2013-06-30 20:03:00,
2013-06-30 16:09:00,64.4,62.6,29.85,NW,315,4.6,4.6,94,0.71,RA,,0.75,WeatherDisplay:10.37,2013-06-30 20:09:00,
2013-06-30 16:14:00,64.8,63.3,29.85,ENE,68,4.6,4.6,95,0.83,RA,,0.87,WeatherDisplay:10.37,2013-06-30 20:14:00,
2013-06-30 16:19:00,64.6,63.1,29.85,SSW,202,2.3,2.3,95,0.87,RA,,0.91,WeatherDisplay:10.37,2013-06-30 20:19:00,
2013-06-30 16:24:00,65.1,63.7,29.85,NNW,338,2.3,2.3,95,0.91,RA,,0.95,WeatherDisplay:10.37,2013-06-30 20:24:00,
2013-06-30 16:29:00,65.3,63.8,29.85,NNW,338,4.6,4.6,95,0.95,RA,,0.99,WeatherDisplay:10.37,2013-06-30 20:29:00,
2013-06-30 16:34:00,65.3,64.1,29.85,NNW,338,4.6,4.6,96,0.95,RA,,0.99,WeatherDisplay:10.37,2013-06-30 20:34:00,
2013-06-30 16:39:00,65.5,64.3,29.85,NNW,338,2.3,2.6,96,1.00,RA,,1.04,WeatherDisplay:10.37,2013-06-30 20:39:00,
2013-06-30 16:44:00,66.0,64.8,29.85,NNW,338,1.6,0.0,96,0.96,RA,,1.04,WeatherDisplay:10.37,2013-06-30 20:44:00,
2013-06-30 16:49:00,66.9,65.4,29.85,NNE,22,2.4,2.4,95,0.71,,,1.04,WeatherDisplay:10.37,2013-06-30 20:49:00,
2013-06-30 16:54:00,67.6,66.2,29.85,WNW,292,3.5,3.5,95,0.63,CLR,,1.04,WeatherDisplay:10.37,2013-06-30 20:54:00,
2013-06-30 16:59:00,68.2,66.7,29.85,WNW,292,5.8,5.8,95,0.50,CLR,,1.04,WeatherDisplay:10.37,2013-06-30 20:59:00,
2013-06-30 17:04:00,70.0,67.9,29.85,NW,315,5.8,5.8,93,0.38,CLR,,1.04,WeatherDisplay:10.37,2013-06-30 21:04:00,
2013-06-30 17:09:00,70.7,68.3,29.85,WNW,292,6.9,6.9,92,0.29,CLR,,1.04,WeatherDisplay:10.37,2013-06-30 21:09:00,
2013-06-30 17:14:00,68.9,65.5,29.85,NNE,22,2.3,2.3,89,0.17,CLR,,1.04,WeatherDisplay:10.37,2013-06-30 21:14:00,
2013-06-30 17:19:00,68.7,65.7,29.85,NNW,338,3.8,3.8,90,0.13,CLR,,1.04,WeatherDisplay:10.37,2013-06-30 21:19:00,
2013-06-30 17:24:00,68.5,65.5,29.85,WNW,292,3.5,3.5,90,0.09,CLR,,1.04,WeatherDisplay:10.37,2013-06-30 21:24:00,
2013-06-30 17:29:00,68.2,65.1,29.85,ENE,68,2.3,2.3,90,0.05,CLR,,1.04,WeatherDisplay:10.37,2013-06-30 21:29:00,
2013-06-30 17:34:00,68.2,65.5,29.85,WNW,292,2.3,2.3,91,0.05,CLR,,1.04,WeatherDisplay:10.37,2013-06-30 21:34:00,
2013-06-30 17:39:00,68.4,65.6,29.85,WSW,248,3.5,3.5,91,0.00,CLR,,1.04,WeatherDisplay:10.37,2013-06-30 21:39:00,
2013-06-30 17:44:00,68.5,66.1,29.85,NNE,22,3.5,3.5,92,0.00,CLR,,1.04,WeatherDisplay:10.37,2013-06-30 21:44:00,
2013-06-30 17:49:00,68.2,65.5,29.85,North,0,2.3,2.3,91,0.00,CLR,,1.04,WeatherDisplay:10.37,2013-06-30 21:49:00,
2013-06-30 17:54:00,68.4,65.3,29.85,NNW,338,3.5,3.5,90,0.00,CLR,,1.04,WeatherDisplay:10.37,2013-06-30 21:54:00,
2013-06-30 17:59:00,68.9,65.8,29.85,NNE,22,2.3,2.3,90,0.00,CLR,,1.04,WeatherDisplay:10.37,2013-06-30 21:59:00,
2013-06-30 18:04:00,69.4,66.1,29.85,NNE,22,3.5,3.5,89,0.00,CLR,,1.04,WeatherDisplay:10.37,2013-06-30 22:04:00,
2013-06-30 18:09:00,70.3,66.3,29.85,NNW,338,2.4,2.4,87,0.00,CLR,,1.04,WeatherDisplay:10.37,2013-06-30 22:09:00,
2013-06-30 18:14:00,70.9,66.5,29.85,ENE,68,2.3,2.3,86,0.00,CLR,,1.04,WeatherDisplay:10.37,2013-06-30 22:14:00,
2013-06-30 18:19:00,71.4,66.0,29.85,WNW,292,1.2,1.6,83,0.00,CLR,,1.04,WeatherDisplay:10.37,2013-06-30 22:19:00,
2013-06-30 18:24:00,72.3,66.5,29.85,SE,135,1.2,0.0,82,0.00,CLR,,1.04,WeatherDisplay:10.37,2013-06-30 22:24:00,
2013-06-30 18:29:00,72.5,66.3,29.85,ENE,68,2.3,2.3,81,0.00,CLR,,1.04,WeatherDisplay:10.37,2013-06-30 22:29:00,
2013-06-30 18:34:00,73.4,66.5,29.85,NNE,22,2.3,2.3,79,0.00,CLR,,1.04,WeatherDisplay:10.37,2013-06-30 22:34:00,
2013-06-30 18:39:00,72.5,64.9,29.85,ENE,68,3.5,3.5,77,0.00,CLR,,1.04,WeatherDisplay:10.37,2013-06-30 22:39:00,
2013-06-30 18:44:00,72.7,65.4,29.85,SW,225,2.3,2.3,78,0.00,CLR,,1.04,WeatherDisplay:10.37,2013-06-30 22:44:00,
2013-06-30 18:49:00,73.0,65.8,29.85,NNW,338,2.3,2.3,78,0.00,CLR,,1.04,WeatherDisplay:10.37,2013-06-30 22:49:00,
2013-06-30 18:54:00,72.7,65.1,29.85,ESE,112,9.2,9.2,77,0.00,CLR,,1.04,WeatherDisplay:10.37,2013-06-30 22:54:00,
2013-06-30 18:59:00,72.3,64.3,29.85,NNW,338,3.5,3.5,76,0.00,CLR,,1.04,WeatherDisplay:10.37,2013-06-30 22:59:00,
2013-06-30 19:04:00,71.8,63.8,29.85,ESE,112,4.6,4.6,76,0.00,CLR,,1.04,WeatherDisplay:10.37,2013-06-30 23:04:00,
2013-06-30 19:09:00,71.4,63.8,29.85,ESE,112,5.8,5.8,77,0.00,CLR,,1.04,WeatherDisplay:10.37,2013-06-30 23:09:00,
2013-06-30 19:14:00,71.4,63.8,29.85,NNW,338,2.4,2.4,77,0.00,CLR,,1.04,WeatherDisplay:10.37,2013-06-30 23:14:00,
2013-06-30 19:19:00,71.2,64.0,29.85,NNW,338,3.5,3.5,78,0.00,CLR,,1.04,WeatherDisplay:10.37,2013-06-30 23:19:00,
2013-06-30 19:24:00,71.1,63.9,29.85,WNW,292,3.5,0.0,78,0.00,CLR,,1.04,WeatherDisplay:10.37,2013-06-30 23:24:00,
2013-06-30 19:25:00,71.1,63.9,29.85,ESE,112,1.2,0.0,78,0.00,CLR,,1.04,WeatherDisplay:10.37,2013-06-30 23:25:00,
2013-06-30 19:30:00,70.9,64.0,29.85,NNW,338,2.3,2.3,79,0.00,CLR,,1.04,WeatherDisplay:10.37,2013-06-30 23:30:00,
2013-06-30 19:35:00,70.3,63.5,29.85,NNW,338,2.3,2.3,79,0.00,CLR,,1.04,WeatherDisplay:10.37,2013-06-30 23:35:00,
2013-06-30 19:40:00,70.2,63.3,29.85,SSW,202,3.5,3.5,79,0.00,CLR,,1.04,WeatherDisplay:10.37,2013-06-30 23:40:00,
2013-06-30 19:45:00,69.8,63.7,29.85,WNW,292,1.2,1.2,81,0.00,CLR,,1.04,WeatherDisplay:10.37,2013-06-30 23:45:00,
2013-06-30 19:50:00,69.6,63.9,29.88,NNE,22,3.5,3.5,82,0.00,CLR,,1.04,WeatherDisplay:10.37,2013-06-30 23:50:00,
2013-06-30 19:55:00,69.3,63.9,29.88,ENE,68,2.3,2.3,83,0.00,CLR,,1.04,WeatherDisplay:10.37,2013-06-30 23:55:00,
2013-06-30 20:00:00,69.1,64.0,29.88,ENE,68,3.5,3.5,84,0.00,CLR,,1.04,WeatherDisplay:10.37,2013-07-01 00:00:00,
2013-06-30 20:05:00,68.9,64.2,29.88,ENE,68,1.2,0.0,85,0.00,CLR,,1.04,WeatherDisplay:10.37,2013-07-01 00:05:00,
2013-06-30 20:10:00,68.5,64.2,29.88,SSE,158,2.6,2.6,86,0.00,CLR,,1.04,WeatherDisplay:10.37,2013-07-01 00:10:00,
2013-06-30 20:15:00,68.4,64.0,29.88,NNE,22,3.5,3.5,86,0.00,CLR,,1.04,WeatherDisplay:10.37,2013-07-01 00:15:00,
2013-06-30 20:20:00,68.2,64.2,29.88,WNW,292,2.3,2.3,87,0.00,CLR,,1.04,WeatherDisplay:10.37,2013-07-01 00:20:00,
2013-06-30 20:25:00,68.2,64.2,29.88,ESE,112,2.3,2.3,87,0.00,CLR,,1.04,WeatherDisplay:10.37,2013-07-01 00:25:00,
2013-06-30 20:30:00,68.0,64.0,29.88,NNW,338,1.2,0.0,87,0.00,CLR,,1.04,WeatherDisplay:10.37,2013-07-01 00:30:00,
2013-06-30 20:35:00,67.8,64.1,29.88,NNW,338,2.3,2.3,88,0.00,CLR,,1.04,WeatherDisplay:10.37,2013-07-01 00:35:00,
2013-06-30 20:40:00,67.6,64.3,29.88,NNE,22,2.3,2.3,89,0.00,CLR,,1.04,WeatherDisplay:10.37,2013-07-01 00:40:00,
2013-06-30 20:45:00,67.6,64.3,29.88,ESE,112,2.6,2.6,89,0.00,CLR,,1.04,WeatherDisplay:10.37,2013-07-01 00:45:00,
2013-06-30 20:50:00,67.6,64.6,29.88,ENE,68,3.5,3.5,90,0.00,CLR,,1.04,WeatherDisplay:10.37,2013-07-01 00:50:00,
2013-06-30 20:55:00,67.5,64.4,29.88,NNE,22,2.3,0.0,90,0.00,CLR,,1.04,WeatherDisplay:10.37,2013-07-01 00:55:00,
2013-06-30 21:00:00,67.5,64.4,29.88,NNW,338,3.5,3.5,90,0.00,CLR,,1.04,WeatherDisplay:10.37,2013-07-01 01:00:00,
2013-06-30 21:05:00,67.5,64.4,29.88,NNE,22,3.5,3.5,90,0.00,CLR,,1.04,WeatherDisplay:10.37,2013-07-01 01:05:00,
2013-06-30 21:10:00,67.5,64.4,29.88,NNW,338,2.3,2.3,90,0.00,CLR,,1.04,WeatherDisplay:10.37,2013-07-01 01:10:00,
2013-06-30 21:15:00,67.5,64.4,29.88,East,90,2.3,2.3,90,0.00,CLR,,1.04,WeatherDisplay:10.37,2013-07-01 01:15:00,
2013-06-30 21:20:00,67.5,64.7,29.88,SSE,158,2.3,2.3,91,0.00,CLR,,1.04,WeatherDisplay:10.37,2013-07-01 01:20:00,
2013-06-30 21:25:00,67.5,64.7,29.88,SSW,202,2.3,2.4,91,0.00,CLR,,1.04,WeatherDisplay:10.37,2013-07-01 01:25:00,
2013-06-30 21:30:00,67.5,64.7,29.91,NNW,338,2.4,2.4,91,0.00,CLR,,1.04,WeatherDisplay:10.37,2013-07-01 01:30:00,
2013-06-30 21:35:00,67.5,64.7,29.91,NNE,22,2.3,2.3,91,0.00,CLR,,1.04,WeatherDisplay:10.37,2013-07-01 01:35:00,
2013-06-30 21:40:00,67.5,65.1,29.91,ENE,68,4.9,4.9,92,0.00,CLR,,1.04,WeatherDisplay:10.37,2013-07-01 01:40:00,
2013-06-30 21:45:00,67.5,65.1,29.88,NNE,22,6.9,6.9,92,0.00,CLR,,1.04,WeatherDisplay:10.37,2013-07-01 01:45:00,
2013-06-30 21:50:00,67.5,65.1,29.88,ESE,112,3.5,3.5,92,0.00,CLR,,1.04,WeatherDisplay:10.37,2013-07-01 01:50:00,
2013-06-30 21:55:00,67.3,64.9,29.88,NNW,338,5.8,5.8,92,0.00,CLR,,1.04,WeatherDisplay:10.37,2013-07-01 01:55:00,
2013-06-30 22:00:00,67.3,64.9,29.88,ENE,68,3.1,3.1,92,0.00,CLR,,1.04,WeatherDisplay:10.37,2013-07-01 02:00:00,
2013-06-30 22:05:00,67.3,64.9,29.88,NNE,22,3.5,3.5,92,0.00,CLR,,1.04,WeatherDisplay:10.37,2013-07-01 02:05:00,
2013-06-30 22:10:00,67.1,64.7,29.88,NNW,338,4.6,4.6,92,0.00,CLR,,1.04,WeatherDisplay:10.37,2013-07-01 02:10:00,
2013-06-30 22:15:00,67.1,64.7,29.88,NE,45,1.2,1.2,92,0.00,CLR,,1.04,WeatherDisplay:10.37,2013-07-01 02:15:00,
2013-06-30 22:20:00,67.1,64.7,29.88,WSW,248,2.3,2.4,92,0.00,CLR,,1.04,WeatherDisplay:10.37,2013-07-01 02:20:00,
2013-06-30 22:25:00,66.9,64.5,29.88,ESE,112,2.3,2.3,92,0.00,CLR,,1.04,WeatherDisplay:10.37,2013-07-01 02:25:00,
2013-06-30 22:30:00,66.9,64.5,29.88,ESE,112,2.9,2.9,92,0.00,CLR,,1.04,WeatherDisplay:10.37,2013-07-01 02:30:00,
2013-06-30 22:35:00,66.9,64.5,29.88,SSE,158,3.5,3.5,92,0.00,CLR,,1.04,WeatherDisplay:10.37,2013-07-01 02:35:00,
2013-06-30 22:40:00,66.9,64.5,29.88,ENE,68,4.6,4.6,92,0.00,CLR,,1.04,WeatherDisplay:10.37,2013-07-01 02:40:00,
2013-06-30 22:45:00,66.9,64.5,29.88,ENE,68,2.3,2.4,92,0.00,CLR,,1.04,WeatherDisplay:10.37,2013-07-01 02:45:00,
2013-06-30 22:50:00,66.9,64.5,29.88,East,90,4.6,4.6,92,0.00,CLR,,1.04,WeatherDisplay:10.37,2013-07-01 02:50:00,
2013-06-30 22:55:00,66.9,64.5,29.88,NNW,338,2.3,2.3,92,0.00,CLR,,1.04,WeatherDisplay:10.37,2013-07-01 02:55:00,
2013-06-30 23:00:00,66.7,64.3,29.88,NE,45,2.3,2.3,92,0.00,CLR,,1.04,WeatherDisplay:10.37,2013-07-01 03:00:00,
2013-06-30 23:05:00,66.7,64.3,29.88,NNE,22,2.3,2.3,92,0.00,CLR,,1.04,WeatherDisplay:10.37,2013-07-01 03:05:00,
2013-06-30 23:06:00,66.7,64.3,29.88,ESE,112,2.3,2.3,92,0.00,CLR,,1.04,WeatherDisplay:10.37,2013-07-01 03:06:00,
2013-06-30 23:11:00,66.7,64.3,29.88,NNE,22,2.3,2.3,92,0.00,CLR,,1.04,WeatherDisplay:10.37,2013-07-01 03:11:00,
2013-06-30 23:16:00,66.6,64.2,29.91,ENE,68,2.4,2.4,92,0.00,CLR,,1.04,WeatherDisplay:10.37,2013-07-01 03:16:00,
2013-06-30 23:21:00,66.6,64.2,29.91,ENE,68,2.3,2.3,92,0.00,CLR,,1.04,WeatherDisplay:10.37,2013-07-01 03:21:00,
2013-06-30 23:26:00,66.6,64.2,29.91,ESE,112,2.9,2.9,92,0.00,CLR,,1.04,WeatherDisplay:10.37,2013-07-01 03:26:00,
2013-06-30 23:31:00,66.4,64.0,29.88,WNW,292,2.3,2.3,92,0.00,CLR,,1.04,WeatherDisplay:10.37,2013-07-01 03:31:00,
2013-06-30 23:36:00,66.4,64.0,29.88,NNW,338,2.3,2.3,92,0.00,CLR,,1.04,WeatherDisplay:10.37,2013-07-01 03:36:00,
2013-06-30 23:41:00,66.4,64.0,29.88,NE,45,1.2,0.0,92,0.00,CLR,,1.04,WeatherDisplay:10.37,2013-07-01 03:41:00,
2013-06-30 23:46:00,66.4,64.0,29.88,ENE,68,4.9,4.9,92,0.00,CLR,,1.04,WeatherDisplay:10.37,2013-07-01 03:46:00,
2013-06-30 23:51:00,66.2,63.8,29.88,ENE,68,1.6,1.6,92,0.00,CLR,,1.04,WeatherDisplay:10.37,2013-07-01 03:51:00,
2013-06-30 23:56:00,66.2,63.8,29.88,SSE,158,2.3,2.3,92,0.00,CLR,,1.04,WeatherDisplay:10.37,2013-07-01 03:56:00,